W4SNA-4 Weather Reports


Display with metric or nautical units.
time (UTC)temp
F
wind
direction
speed
MPH
gust
MPH
rain 1hr
in
rain 24hr
in
rain mn
in
humidity
%
barometer
mb
20260901071920 77 0 0.0 0.0 0.00 0.00 0.00 86 1014.8
20260901071410 77 0 0.0 0.0 0.00 0.00 0.00 87 1014.8
20260901070910 77 0 0.0 0.0 0.00 0.00 0.00 87 1014.9
20260901070412 77 0 0.0 0.0 0.00 0.00 0.00 87 1014.9
20260901065916 77 0 0.0 0.0 0.00 0.00 0.00 88 1014.9
20260901065410 77 0 0.0 0.0 0.00 0.00 0.00 88 1014.9
20260901064912 77 0 0.0 0.0 0.00 0.00 0.00 88 1014.9
20260901064419 77 0 0.0 0.0 0.00 0.00 0.00 88 1014.9
20260901063913 77 0 0.0 0.0 0.00 0.00 0.00 88 1015.0
20260901063410 77 0 0.0 0.0 0.00 0.00 0.00 88 1015.0
20260901062923 77 0 0.0 0.0 0.00 0.00 0.00 88 1015.0
20260901062415 78 0 0.0 0.0 0.00 0.00 0.00 88 1015.1
20260901061912 78 0 0.0 0.0 0.00 0.00 0.00 87 1015.1
20260901061413 78 0 0.0 0.0 0.00 0.00 0.00 86 1015.1
20260901060910 78 0 0.0 0.0 0.00 0.00 0.00 86 1015.1
20260901060416 78 0 0.0 0.0 0.00 0.00 0.00 86 1015.1
20260901055912 78 0 0.0 0.0 0.00 0.00 0.00 86 1015.1
20260901055412 78 0 0.0 0.0 0.00 0.00 0.00 86 1015.0
20260901054918 78 0 0.0 0.0 0.00 0.00 0.00 86 1015.0
20260901054410 79 0 0.0 0.0 0.00 0.00 0.00 86 1015.0
20260901053910 79 0 0.0 0.0 0.00 0.00 0.00 86 1015.2
20260901053411 79 0 0.0 0.0 0.00 0.00 0.00 86 1015.2
20260901052910 79 0 0.0 0.0 0.00 0.00 0.00 85 1015.2
20260901051910 79 0 0.0 0.0 0.00 0.00 0.00 85 1015.3
20260901051410 79 0 0.0 0.0 0.00 0.00 0.00 84 1015.3
20260901050910 79 0 0.0 0.0 0.00 0.00 0.00 83 1015.3
20260901050410 80 0 0.0 0.0 0.00 0.00 0.00 80 1015.3
20260901045910 80 0 0.0 0.0 0.00 0.00 0.00 80 1015.3
20260901045411 80 0 0.0 0.0 0.00 0.00 0.00 80 1015.1
20260901044410 80 0 0.0 0.0 0.00 0.00 0.00 78 1015.1
20260901043910 80 0 0.0 0.0 0.00 0.00 0.00 78 1015.1
20260901043418 80 0 0.0 0.0 0.00 0.00 0.00 77 1015.1
20260901042910 80 0 0.0 0.0 0.00 0.00 0.00 78 1015.1
20260901042111 80 0 0.0 0.0 0.00 0.00 0.00 78 1015.1
20260901041611 80 0 0.0 0.0 0.00 0.00 0.00 77 1015.1
20260901041112 80 0 0.0 0.0 0.00 0.00 0.00 79 1015.1
20260901040611 80 0 0.0 0.0 0.00 0.00 0.00 81 1015.0
20260901040112 80 0 0.0 0.0 0.00 0.00 0.00 82 1015.0
20260901035611 80 0 0.0 0.0 0.00 0.00 0.00 82 1015.0
20260901035120 80 0 0.0 0.0 0.00 0.00 0.00 81 1015.0
20260901034612 80 0 0.0 0.0 0.00 0.00 0.00 81 1015.0
20260901034111 80 0 0.0 0.0 0.00 0.00 0.00 81 1015.0
20260901033616 80 0 0.0 0.0 0.00 0.00 0.00 82 1015.0
20260901033118 80 0 0.0 0.0 0.00 0.00 0.00 82 1015.0
20260901032517 80 0 0.0 0.0 0.00 0.00 0.00 82 1015.0
20260901032017 80 0 0.0 0.0 0.00 0.00 0.00 83 1015.0
20260901031517 80 0 0.0 0.0 0.00 0.00 0.00 83 1015.0
20260901031021 80 0 0.0 0.0 0.00 0.00 0.00 83 1015.2
20260901030518 80 0 0.0 0.0 0.00 0.00 0.00 83 1015.2
20260901030021 80 0 0.0 0.0 0.00 0.00 0.00 83 1015.2
20260901025517 80 0 0.0 0.0 0.00 0.00 0.00 83 1015.3
20260901025019 80 0 0.0 0.0 0.00 0.00 0.00 83 1015.3
20260901024518 80 0 0.0 0.0 0.00 0.00 0.00 83 1015.3
20260901024016 80 0 0.0 0.0 0.00 0.00 0.00 83 1015.1
20260901023519 80 0 0.0 0.0 0.00 0.00 0.00 83 1015.1
20260901023021 81 0 0.0 0.0 0.00 0.00 0.00 82 1015.1
20260901022518 81 0 0.0 0.0 0.00 0.00 0.00 83 1015.0
20260901022019 81 0 0.0 0.0 0.00 0.00 0.00 83 1015.0
20260901021519 81 0 0.0 0.0 0.00 0.00 0.00 83 1015.0
20260901021020 81 0 0.0 0.0 0.00 0.00 0.00 83 1015.1
20260901020518 81 0 0.0 0.0 0.00 0.00 0.00 83 1015.1
20260901020017 81 0 0.0 0.0 0.00 0.00 0.00 83 1015.1
20260901015518 81 0 0.0 0.0 0.00 0.00 0.00 82 1015.0
20260901015019 81 0 0.0 0.0 0.00 0.00 0.00 82 1015.0
20260901014519 81 0 0.0 0.0 0.00 0.00 0.00 82 1015.0
20260901014021 81 0 0.0 0.0 0.00 0.00 0.00 82 1014.9
20260901013526 81 0 0.0 0.0 0.00 0.00 0.00 81 1014.9
20260901013021 81 0 0.0 0.0 0.00 0.00 0.00 81 1014.9
20260901012518 81 0 0.0 0.0 0.00 0.00 0.00 81 1014.5
20260901012016 81 0 0.0 0.0 0.00 0.00 0.00 80 1014.5
20260901011435 81 0 0.0 0.0 0.00 0.00 0.00 80 1014.5
20260901010932 81 0 0.0 0.0 0.00 0.00 0.00 80 1014.4
20260901010435 82 0 0.0 0.0 0.00 0.00 0.00 81 1014.4
20260901005936 82 0 0.0 0.0 0.00 0.00 0.00 81 1014.4
20260901005436 82 0 0.0 0.0 0.00 0.00 0.00 82 1014.2
20260901004932 82 0 0.0 0.0 0.00 0.00 0.00 82 1014.2
20260901004432 82 0 0.0 0.0 0.00 0.00 0.00 81 1014.2
20260901003932 82 0 0.0 0.0 0.00 0.00 0.00 81 1014.2
20260901003432 82 0 0.0 0.0 0.00 0.00 0.00 80 1014.2
20260901002937 83 0 0.0 0.0 0.00 0.00 0.00 79 1014.2
20260901002443 83 0 0.0 0.0 0.00 0.00 0.00 78 1014.0
20260901001934 83 0 0.0 0.0 0.00 0.00 0.00 77 1014.0
20260901001432 83 0 0.0 0.0 0.00 0.00 0.00 76 1014.0
20260901000932 83 0 0.0 0.0 0.00 0.00 0.00 76 1014.0
20260901000435 84 0 0.0 0.0 0.00 0.00 0.00 75 1014.0
20260831235932 84 0 0.0 0.0 0.00 0.00 0.00 74 1014.0
20260831235436 84 0 0.0 0.0 0.00 0.00 0.00 73 1013.9
20260831234932 84 0 0.0 0.0 0.00 0.00 0.00 72 1013.9
20260831234441 84 0 0.0 0.0 0.00 0.00 0.00 72 1013.9
20260831233932 85 0 0.0 0.0 0.00 0.00 0.00 71 1013.9
20260831233432 85 0 0.0 0.0 0.00 0.00 0.00 71 1013.9
20260831232934 85 0 0.0 0.0 0.00 0.00 0.00 71 1013.9
20260831232444 85 0 0.0 0.0 0.00 0.00 0.00 70 1014.0
20260831231932 85 0 0.0 0.0 0.00 0.00 0.00 70 1014.0
20260831231434 85 0 0.0 0.0 0.00 0.00 0.00 70 1014.0
20260831231012 85 0 0.0 0.0 0.00 0.00 0.00 70 1013.9
20260831230932 85 0 0.0 0.0 0.00 0.00 0.00 70 1013.9
20260831230433 85 0 0.0 0.0 0.00 0.00 0.00 70 1013.9
20260831225932 85 0 0.0 0.0 0.00 0.00 0.00 70 1013.9
20260831225445 85 0 0.0 0.0 0.00 0.00 0.00 70 1014.2
20260831224932 85 0 0.0 0.0 0.00 0.00 0.00 71 1014.2
20260831224437 86 0 0.0 0.0 0.00 0.00 0.00 71 1014.2
20260831223933 86 0 0.0 0.0 0.00 0.00 0.00 71 1014.3
20260831223432 86 0 0.0 0.0 0.00 0.00 0.00 70 1014.3
20260831222932 86 0 0.0 0.0 0.00 0.00 0.00 70 1014.3
20260831222443 86 0 0.0 0.0 0.00 0.00 0.00 70 1014.4
20260831221932 86 0 0.0 0.0 0.00 0.00 0.00 70 1014.4
20260831221436 86 0 0.0 0.0 0.00 0.00 0.00 70 1014.4
20260831220932 86 0 0.0 0.0 0.00 0.00 0.00 68 1014.5
20260831220432 86 0 0.0 0.0 0.00 0.00 0.00 68 1014.5
20260831215932 86 0 0.0 0.0 0.00 0.00 0.00 67 1014.5
20260831215443 86 0 0.0 0.0 0.00 0.00 0.00 67 1014.5
20260831214933 86 0 0.0 0.0 0.00 0.00 0.00 67 1014.5
20260831214439 86 0 0.0 0.0 0.00 0.00 0.00 67 1014.5
20260831213933 87 0 0.0 0.0 0.00 0.00 0.00 66 1014.5
20260831213432 87 0 0.0 0.0 0.00 0.00 0.00 65 1014.5
20260831212932 87 0 0.0 0.0 0.00 0.00 0.00 65 1014.5
20260831212443 87 0 0.0 0.0 0.00 0.00 0.00 65 1014.5
20260831211932 87 0 0.0 0.0 0.00 0.00 0.00 66 1014.5
20260831211252 87 0 0.0 0.0 0.00 0.00 0.00 66 1014.5
20260831210751 87 0 0.0 0.0 0.00 0.00 0.00 64 1014.5
20260831210252 87 0 0.0 0.0 0.00 0.00 0.00 63 1014.5
20260831205751 87 0 0.0 0.0 0.00 0.00 0.00 62 1014.5
20260831205252 87 0 0.0 0.0 0.00 0.00 0.00 62 1014.5
20260831204752 87 0 0.0 0.0 0.00 0.00 0.00 64 1014.5
20260831204251 87 0 0.0 0.0 0.00 0.00 0.00 63 1014.5
20260831203754 87 0 0.0 0.0 0.00 0.00 0.00 62 1014.7
20260831203251 88 0 0.0 0.0 0.00 0.00 0.00 62 1014.7
20260831202752 88 0 0.0 0.0 0.00 0.00 0.00 62 1014.7
20260831202252 88 0 0.0 0.0 0.00 0.00 0.00 62 1015.0
20260831201751 88 0 0.0 0.0 0.00 0.00 0.00 62 1015.0
20260831201252 88 0 0.0 0.0 0.00 0.00 0.00 61 1015.0
20260831200752 88 0 0.0 0.0 0.00 0.00 0.00 61 1015.0
20260831200258 88 0 0.0 0.0 0.00 0.00 0.00 61 1015.0
20260831195752 88 0 0.0 0.0 0.00 0.00 0.00 58 1015.0
20260831195251 88 0 0.0 0.0 0.00 0.00 0.00 61 1015.1
20260831194752 88 0 0.0 0.0 0.00 0.00 0.00 61 1015.1
20260831194251 88 0 0.0 0.0 0.00 0.00 0.00 57 1015.1
20260831193753 88 0 0.0 0.0 0.00 0.00 0.00 61 1015.1
20260831193254 88 0 0.0 0.0 0.00 0.00 0.00 60 1015.1
20260831192751 88 0 0.0 0.0 0.00 0.00 0.00 60 1015.1
20260831192254 87 0 0.0 0.0 0.00 0.00 0.00 59 1015.3
20260831191752 87 0 0.0 0.0 0.00 0.00 0.00 62 1015.3
20260831191252 87 0 0.0 0.0 0.00 0.00 0.00 63 1015.3
20260831190752 87 0 0.0 0.0 0.00 0.00 0.00 66 1015.5
20260831190253 87 0 0.0 0.0 0.00 0.00 0.00 65 1015.5
20260831185751 87 0 0.0 0.0 0.00 0.00 0.00 65 1015.5
20260831185252 86 0 0.0 0.0 0.00 0.00 0.00 63 1015.6
20260831184751 86 0 0.0 0.0 0.00 0.00 0.00 69 1015.6
20260831184258 86 0 0.0 0.0 0.00 0.00 0.00 67 1015.6
20260831183753 86 0 0.0 0.0 0.00 0.00 0.00 68 1015.7
20260831183251 86 0 0.0 0.0 0.00 0.00 0.00 67 1015.7
20260831182752 86 0 0.0 0.0 0.00 0.00 0.00 69 1015.7
20260831182256 86 0 0.0 0.0 0.00 0.00 0.00 70 1015.9
20260831181751 86 0 0.0 0.0 0.00 0.00 0.00 67 1015.9
20260831181251 86 0 0.0 0.0 0.00 0.00 0.00 64 1015.9
20260831180751 86 0 0.0 0.0 0.00 0.00 0.00 64 1016.1
20260831180257 87 0 0.0 0.0 0.00 0.00 0.00 68 1016.1
20260831175753 87 0 0.0 0.0 0.00 0.00 0.00 66 1016.1
20260831175257 87 0 0.0 0.0 0.00 0.00 0.00 67 1016.1
20260831174752 87 0 0.0 0.0 0.00 0.00 0.00 68 1016.1
20260831174251 87 0 0.0 0.0 0.00 0.00 0.00 68 1016.1
20260831173754 86 0 0.0 0.0 0.00 0.00 0.00 68 1016.2
20260831173252 86 0 0.0 0.0 0.00 0.00 0.00 66 1016.2
20260831172751 86 0 0.0 0.0 0.00 0.00 0.00 68 1016.2
20260831172252 86 0 0.0 0.0 0.00 0.00 0.00 68 1016.3
20260831171751 86 0 0.0 0.0 0.00 0.00 0.00 69 1016.3
20260831171251 86 0 0.0 0.0 0.00 0.00 0.00 68 1016.3
20260831170800 86 0 0.0 0.0 0.00 0.00 0.00 69 1016.2
20260831170207 86 0 0.0 0.0 0.00 0.00 0.00 72 1016.2
20260831165706 86 0 0.0 0.0 0.00 0.00 0.00 70 1016.2
20260831165224 85 0 0.0 0.0 0.00 0.00 0.00 71 1016.4
20260831164707 85 0 0.0 0.0 0.00 0.00 0.00 71 1016.4
20260831164205 85 0 0.0 0.0 0.00 0.00 0.00 71 1016.4
20260831163705 85 0 0.0 0.0 0.00 0.00 0.00 71 1016.7
20260831163209 86 0 0.0 0.0 0.00 0.00 0.00 73 1016.7
20260831162705 86 0 0.0 0.0 0.00 0.00 0.00 71 1016.7
20260831162207 86 0 0.0 0.0 0.00 0.00 0.00 71 1016.7
20260831161705 86 0 0.0 0.0 0.00 0.00 0.00 72 1016.7
20260831161208 86 0 0.0 0.0 0.00 0.00 0.00 71 1016.7
20260831160707 86 0 0.0 0.0 0.00 0.00 0.00 73 1016.7
20260831160208 86 0 0.0 0.0 0.00 0.00 0.00 73 1016.7
20260831155707 86 0 0.0 0.0 0.00 0.00 0.00 75 1016.7
20260831155207 85 0 0.0 0.0 0.00 0.00 0.00 75 1016.7
20260831154704 84 0 0.0 0.0 0.00 0.00 0.00 76 1016.7
20260831154207 84 0 0.0 0.0 0.00 0.00 0.00 77 1016.7
20260831153705 84 0 0.0 0.0 0.00 0.00 0.00 76 1016.7
20260831153208 83 0 0.0 0.0 0.00 0.00 0.00 78 1016.7
20260831152826 83 0 0.0 0.0 0.00 0.00 0.00 78 1016.8
20260831152706 83 0 0.0 0.0 0.00 0.00 0.00 78 1016.7
20260831152205 83 0 0.0 0.0 0.00 0.00 0.00 78 1016.8
20260831151705 83 0 0.0 0.0 0.00 0.00 0.00 79 1016.8
20260831151208 82 0 0.0 0.0 0.00 0.00 0.00 81 1016.8
20260831150705 82 0 0.0 0.0 0.00 0.00 0.00 81 1016.8
20260831150208 81 0 0.0 0.0 0.00 0.00 0.00 79 1016.8
20260831145707 81 0 0.0 0.0 0.00 0.00 0.00 81 1016.8
20260831145207 81 0 0.0 0.0 0.00 0.00 0.00 83 1016.8
20260831144705 80 0 0.0 0.0 0.00 0.00 0.00 84 1016.8
20260831144211 80 0 0.0 0.0 0.00 0.00 0.00 85 1016.8
20260831143713 79 0 0.0 0.0 0.00 0.00 0.00 85 1016.8
20260831143219 78 0 0.0 0.0 0.00 0.00 0.00 86 1016.8
20260831142739 78 0 0.0 0.0 0.00 0.00 0.00 86 1016.8
20260831142707 78 0 0.0 0.0 0.00 0.00 0.00 86 1016.8
20260831142212 78 0 0.0 0.0 0.00 0.00 0.00 87 1016.8
20260831141709 77 0 0.0 0.0 0.00 0.00 0.00 88 1016.8
20260831141206 77 0 0.0 0.0 0.00 0.00 0.00 89 1016.8
20260831140707 76 0 0.0 0.0 0.00 0.00 0.00 90 1016.8
20260831140207 76 0 0.0 0.0 0.00 0.00 0.00 91 1016.8
20260831135709 75 0 0.0 0.0 0.00 0.00 0.00 91 1016.8
20260831135112 75 0 0.0 0.0 0.00 0.00 0.00 92 1016.8
20260831134617 74 0 0.0 0.0 0.00 0.00 0.00 93 1016.8
20260831133610 74 0 0.0 1.0 0.00 0.00 0.00 94 1016.7
20260831132612 73 0 0.0 0.0 0.00 0.00 0.00 95 1016.7
20260831132120 73 0 0.0 0.0 0.00 0.00 0.00 95 1016.8
20260831131616 73 0 0.0 0.0 0.00 0.00 0.00 95 1016.8
20260831131113 73 0 0.0 0.0 0.00 0.00 0.00 95 1016.8
20260831130610 72 0 0.0 0.0 0.00 0.00 0.00 95 1016.6
20260831130110 72 0 0.0 0.0 0.00 0.00 0.00 95 1016.6
20260831125612 72 0 0.0 0.0 0.00 0.00 0.00 95 1016.6
20260831125145 72 0 0.0 0.0 0.00 0.00 0.00 95 1016.6
20260831125110 72 0 0.0 0.0 0.00 0.00 0.00 95 1016.6
20260831124610 72 0 0.0 0.0 0.00 0.00 0.00 95 1016.6
20260831124112 72 0 0.0 0.0 0.00 0.00 0.00 95 1016.6
20260831123610 72 0 0.0 0.0 0.00 0.00 0.00 96 1016.5
20260831123110 72 0 0.0 0.0 0.00 0.00 0.00 96 1016.5
20260831122612 72 0 0.0 0.0 0.00 0.00 0.00 96 1016.5
20260831122111 72 0 0.0 0.0 0.00 0.00 0.00 96 1016.4
20260831121612 72 0 0.0 0.0 0.00 0.00 0.00 96 1016.4
20260831121112 72 0 0.0 0.0 0.00 0.00 0.00 96 1016.4
20260831120618 72 0 0.0 0.0 0.00 0.00 0.00 96 1016.4
20260831120113 72 0 0.0 0.0 0.00 0.00 0.00 96 1016.4
20260831115612 72 0 0.0 0.0 0.00 0.00 0.00 96 1016.4
20260831115110 72 0 0.0 0.0 0.00 0.00 0.00 96 1016.4
20260831114613 72 0 0.0 0.0 0.00 0.00 0.00 96 1016.4
20260831114133 72 0 0.0 0.0 0.00 0.00 0.00 96 1016.4
20260831113611 71 0 0.0 0.0 0.00 0.00 0.00 96 1016.3
20260831113111 71 0 0.0 0.0 0.00 0.00 0.00 96 1016.3
20260831112622 71 0 0.0 0.0 0.00 0.00 0.00 96 1016.3
20260831112112 71 0 0.0 0.0 0.00 0.00 0.00 96 1016.3
20260831111619 71 0 0.0 0.0 0.00 0.00 0.00 96 1016.3
20260831111123 71 0 0.0 0.0 0.00 0.00 0.00 96 1016.3
20260831110610 71 0 0.0 0.0 0.00 0.00 0.00 96 1016.3
20260831110113 71 0 0.0 0.0 0.00 0.00 0.00 96 1016.3
20260831105507 71 0 0.0 0.0 0.00 0.00 0.00 96 1016.3
20260831105002 71 0 0.0 0.0 0.00 0.00 0.00 95 1016.3
20260831104505 71 0 0.0 0.0 0.00 0.00 0.00 95 1016.3
20260831104001 71 0 0.0 0.0 0.00 0.00 0.00 95 1016.2
20260831103503 71 0 0.0 0.0 0.00 0.00 0.00 95 1016.2
20260831103001 71 0 0.0 0.0 0.00 0.00 0.00 95 1016.2
20260831102501 71 0 0.0 0.0 0.00 0.00 0.00 95 1016.2
20260831102002 71 0 0.0 0.0 0.00 0.00 0.00 95 1016.2
20260831101501 71 0 0.0 0.0 0.00 0.00 0.00 95 1016.2
20260831101008 71 0 0.0 0.0 0.00 0.00 0.00 95 1016.0
20260831100502 71 0 0.0 0.0 0.00 0.00 0.00 95 1016.0
20260831100006 71 0 0.0 0.0 0.00 0.00 0.00 95 1016.0
20260831095502 72 0 0.0 0.0 0.00 0.00 0.00 95 1015.9
20260831095002 72 0 0.0 0.0 0.00 0.00 0.00 94 1015.9
20260831094501 72 0 0.0 0.0 0.00 0.00 0.00 94 1015.9
20260831094005 72 0 0.0 0.0 0.00 0.00 0.00 94 1015.8
20260831093502 72 0 0.0 0.0 0.00 0.00 0.00 94 1015.8
20260831093001 72 0 0.0 0.0 0.00 0.00 0.00 94 1015.8
20260831092059 72 0 0.0 0.0 0.00 0.00 0.00 94 1015.8
20260831091602 72 0 0.0 0.0 0.00 0.00 0.00 94 1015.8
20260831091102 72 0 0.0 0.0 0.00 0.00 0.00 94 1015.8
20260831090601 72 0 0.0 0.0 0.00 0.00 0.00 94 1015.8
20260831090059 72 0 0.0 0.0 0.00 0.00 0.00 94 1015.8
20260831085559 72 0 0.0 0.0 0.00 0.00 0.00 94 1015.8
20260831085059 72 0 0.0 0.0 0.00 0.00 0.00 93 1015.8
20260831084558 72 0 0.0 0.0 0.00 0.00 0.00 93 1015.8
20260831084102 72 0 0.0 0.0 0.00 0.00 0.00 93 1015.8
20260831083559 72 0 0.0 0.0 0.00 0.00 0.00 93 1015.8
20260831083059 72 0 0.0 0.0 0.00 0.00 0.00 93 1015.8
20260831082559 72 0 0.0 0.0 0.00 0.00 0.00 93 1015.8
20260831082059 72 0 0.0 0.0 0.00 0.00 0.00 93 1015.8
20260831081559 72 0 0.0 0.0 0.00 0.00 0.00 93 1015.8
20260831081059 72 0 0.0 0.0 0.00 0.00 0.00 93 1015.8
20260831080601 72 0 0.0 0.0 0.00 0.00 0.00 92 1015.8
20260831075609 72 0 0.0 0.0 0.00 0.00 0.00 92 1015.8
20260831075108 72 0 0.0 0.0 0.00 0.00 0.00 92 1015.8
20260831074608 72 0 0.0 0.0 0.00 0.00 0.00 92 1015.8
20260831073737 72 0 0.0 0.0 0.00 0.00 0.00 92 1015.8
20260831073236 72 0 0.0 0.0 0.00 0.00 0.00 92 1015.8
20260831072746 72 0 0.0 0.0 0.00 0.00 0.00 92 1015.8